Miscellaneous Local Product
Issued by NWS Hastings, NE

Home | Current Version | Previous Version | Graphics & Text | Print | Product List | Glossary On
Versions: 1 2 3 4 5 6 7 8 9 10 11 12 13 14 15 16 17 18 19 20 21 22 23 24 25 26 27 28 29 30 31 32 33 34 35 36 37 38 39 40 41 42 43 44 45 46 47 48 49 50
000
AXUS43 KGID 050702
MISGRI

GID CWA HOURLY WEATHER ROUNDUP
NATIONAL WEATHER SERVICE HASTINGS NE
200 AM CDT SUN JUL 05 2015

NOTE: "FAIR" INDICATES FEW OR NO CLOUDS BELOW 12,000 FEET WITH NO
SIGNIFICANT WEATHER AND/OR OBSTRUCTIONS TO VISIBILITY.

...SOUTH CENTRAL NEBRASKA...

CITY           SKY/WX    TMP DP  RH WIND       PRES   REMARKS
GRAND ISLAND   FAIR      72  63  73 S15       29.91F
HASTINGS       FAIR      73  63  70 S9        29.92S
KEARNEY        FAIR      72  61  68 S14       29.90S
ORD            FAIR      73  62  68 SE6       29.88R
YORK           FAIR      72  64  78 S14       29.92F
AURORA         FAIR      71  65  82 S13       29.92S
LEXINGTON      FAIR      75  64  68 S16       29.88F
HOLDREGE       FAIR      73  62  66 SE12      29.90F
HEBRON         FAIR      72  62  71 SE9       29.94S

...NEBRASKA PANHANDLE...

CITY           SKY/WX    TMP DP  RH WIND       PRES   REMARKS
CHADRON        FAIR      64  61  90 NE9       29.84R
ALLIANCE       FAIR      70  63  78 S7        29.87F
SCOTTSBLUFF    FAIR      69  62  78 SE7       29.87S
SIDNEY         FAIR      70  61  73 S5        29.92S

...WESTERN AND NORTH CENTRAL NEBRASKA...

CITY           SKY/WX    TMP DP  RH WIND       PRES   REMARKS
VALENTINE      FAIR      78  53  41 W10       29.83R
AINSWORTH      FAIR      75  65  70 S12G20    29.86R
ONEILL         FAIR      73  65  76 S13       29.88R
BROKEN BOW     FAIR      75  64  68 SE7       29.89S
IMPERIAL       FAIR      76  61  59 SE12      29.88F
NORTH PLATTE   FAIR      73  63  70 E13       29.88S
MCCOOK         FAIR      76  63  64 SE7       29.88S

...EASTERN NEBRASKA...

CITY           SKY/WX    TMP DP  RH WIND       PRES   REMARKS
NORFOLK        FAIR      70  65  84 S13       29.90S
SO SIOUX CITY  FAIR      68  61  78 SE8       29.91F
TEKAMAH        FAIR      68  63  84 SE7       29.93F
COLUMBUS       FAIR      70  61  73 S8        29.88F
ALBION         FAIR      68  63  83 SE9       29.90F
OMAHA EPPLEY   FAIR      70  62  76 S9        29.95F
OFFUTT AFB     FAIR      64  60  89 E6        29.94F
MILLARD        FAIR      69  63  81 SE5       29.94F
LINCOLN        FAIR      71  64  78 S10       29.94F
NEBRASKA CITY  FAIR      67  60  77 S9        29.97F
BEATRICE       FAIR      71  64  78 S14       29.95S
FALLS CITY     FAIR      67  64  90 SE7       29.97F

...NORTHERN KANSAS...

CITY           SKY/WX    TMP DP  RH WIND       PRES   REMARKS
GOODLAND       FAIR      74  61  63 S18       29.90F
NORTON         SUNNY     73  61  64 SE9       29.88F
PHILLIPSBURG   CLEAR     79  64  61 SE8       29.90S
SMITH CENTER   CLEAR     73  63  68 SE12      29.92S
HAYS           FAIR      75  63  64 S14       29.92S
RUSSELL        FAIR      75  66  73 S16       29.91S
CONCORDIA      FAIR      73  63  70 SE13      29.93F
SALINA         FAIR      78  64  61 SE13      29.94S
TOPEKA         FAIR      70  65  84 E5        29.98F HAZE



USA.gov is the U.S. government's official web portal to all federal, state and local government web resources and services.